Montana Department of Transportation

Main Content

Accidents and Incidents Report

Hourly Weather Roundup

ASUS45 KTFX 270119
RWRMT 
MONTANA HOURLY WEATHER ROUNDUP
NATIONAL WEATHER SERVICE GREAT FALLS MT
619 PM MST WED NOV 26 2014

NOTE: "FAIR" INDICATES FEW OR NO CLOUDS BELOW 12000 FEET WITH NO
SIGNIFICANT WEATHER AND/OR OBSTRUCTIONS TO VISIBILITY.

* THESE STATIONS ARE NOT UNDER NWS QUALITY CONTROL. THEY DO NOT
   REPORT WEATHER SUCH AS PRECIPITATION OR FOG.

MTZ001.007-043-270200-
WEST OF THE DIVIDE
CITY           SKY/WX    TMP DP  RH WIND       PRES   REMARKS
KALISPELL      LGT SNOW  32  32 100 CALM      30.10F VSB 2    
MISSOULA       FOG       32  32 100 W3        30.15F 
BUTTE          CLOUDY    43  28  56 NE5       30.13F 
MULLAN PASS    FOG       36  36 100 W12G22    30.08F VSB 1/2  WCI  28 
* ESSEX        N/A       31  29  92 N/A        N/A   
* EUREKA APT   CLOUDY    34  32  92 S7        30.07F WCI  28 
* HAMILTON APT CLOUDY    41  36  82 NW5       30.11F 
* LIBBY APT    CLOUDY   N/A N/A N/A CALM      30.09F VSB 1 1/2 
* LINCOLN      N/A       37  35  92 SW4G10     N/A   
* LOOKOUT PASS N/A       40  37  89 N2         N/A   
* POLSON       N/A       34  34 100 SE2        N/A   
* RONAN APT    CLOUDY    34  30  85 N/A        N/A   
* SEELEY LAKE  N/A       32  31  96 S1G6       N/A   
* THOMP F APT  CLOUDY    33  30  89 NE3        N/A   
* YAAK HILL    N/A       32  30  92 E1         N/A   
--------------------------------

MTZ008-052.055-270200-
SOUTHWEST MONTANA
CITY           SKY/WX    TMP DP  RH WIND       PRES   REMARKS
BOZEMAN        CLOUDY    27  25  92 S3        30.13F 
DILLON         CLOUDY    41  28  60 SE9       30.16F 
* W YELLOWSTON CLOUDY    35  33  92 SW5G13     N/A   WCI  31 
* ENNIS APT    CLOUDY    45  28  51 SE10       N/A   
* THREE FORKS  CLOUDY    25   1  35 N/A        N/A   
* BOULDER HILL N/A       37  29  73 SE8G20     N/A   WCI  31 
* MONIDA PASS  N/A       31  31 100 SE16       N/A   WCI  20 
* RAYNOLDS PAS N/A       31  14  49 S16        N/A   WCI  20 
* WHITEHALL    N/A       47  30  52 SW11G19    N/A   
* WISE RIVER   N/A       42  29  60 W7         N/A   
--------------------------------

MTZ009.010-012-014-046-048-049-054-270200-
EAST SLOPES AND CENTRAL MONTANA
CITY           SKY/WX    TMP DP  RH WIND       PRES   REMARKS
CUT BANK       CLOUDY    28  27  96 SE13      30.05F WCI  17 
GREAT FALLS    FOG       28  28 100 E6        30.06F VSB 3/4  WCI  21 
HELENA         FOG       28  27  96 SW5       30.12S VSB 3    WCI  22 
MALMSTROM AFB  FOG       28  28 100 NE5       30.09F VSB 1/4  WCI  22 
* CONRAD       CLOUDY    28  28 100 E5         N/A   WCI  22 
* DEARBORN     N/A       32  30  92 NE2        N/A   
* EAST GLACIER N/A       27  26  96 E2         N/A   
* MONARCH      N/A       27  23  85 E2         N/A   
* PENDROY      N/A       27  27 100 S9         N/A   WCI  18 
* ROGERS PASS  N/A       37  33  85 E12G20     N/A   WCI  29 
* SAINT MARY   N/A       32  31  96 NW3G8      N/A   
* SWEET GRASS  N/A       27  27 100 S17        N/A   WCI  14 
* WHITE SULPH  N/A       30  26  85 E9G14      N/A   WCI  22 
--------------------------------

MTZ011-013-016-021-035-040-045-047-050-051-270200-
NORTH CENTRAL MONTANA
CITY           SKY/WX    TMP DP  RH WIND       PRES   REMARKS
HAVRE          LGT SNOW  30  27  89 E9        30.16F WCI  22 
LEWISTOWN      LGT SNOW  28  25  89 E9        30.09F WCI  19 
* N BAR RANCH  FOG       28  23  81 S8        30.11F VSB 2 1/2 WCI  20 
* CHINOOK      CLOUDY    28  27  96 E10       30.20R VSB 2    WCI  19 
* FORT BENTON  CLOUDY    30  27  89 NE8       30.13F WCI  22 
* CHESTER      N/A       27  25  92 SE8G13     N/A   WCI  19 
* DENTON       N/A       29  28  96 E2         N/A   
* GEYSER       N/A       27  26  96 NE4        N/A   
* JUDITH GAP   N/A       25  25 100 S14        N/A   WCI  13 
* LOMA         N/A       29  28  96 E16        N/A   WCI  17 
--------------------------------

MTZ017.020-022.027-061-062-270200-
NORTHEAST MONTANA
CITY           SKY/WX    TMP DP  RH WIND       PRES   REMARKS
GLASGOWCLOUDY    18  12  77 E15       30.27F WCI   4 
GLENDIVE       CLOUDY    16  10  77 NE7       30.31F WCI   6 
JORDAN         CLOUDY    27  25  92 E8        30.25F WCI  19 
SIDNEY         MOCLDY    10   7  88 N8        30.38S WCI  -2 
WOLF POINT     CLOUDY    18   9  68 E7        30.35S WCI   9 
* BEAVER HILL  N/A       17  12  81 E4         N/A   
* CIRCLE       N/A       21  17  84 N/A        N/A   
* LINDSAY DVD  N/A       18  16  92 SE5        N/A   WCI  11 
* NAVAJO       N/A        6   2  83 SE5        N/A   WCI  -3 
* PLENTYWOOD A MOCLDY     9   1  70 N/A       30.33F 
* POPLAR APT   MOCLDY    12   7  80 N/A       30.35F 
* SACO         N/A       23  19  85 E11        N/A   WCI  12 
* SCOBEY APT   CLOUDY    12   3  67 SE6        N/A   WCI   2 
--------------------------------

MTZ028.042-056.058-270200-
SOUTHCENTRAL AND SOUTHEAST MONTANA
CITY           SKY/WX    TMP DP  RH WIND       PRES   REMARKS
BAKER          CLOUDY    19  16  88 S7        30.29S WCI  10 
BILLINGS       CLOUDY    28  27  96 SE3       30.17F 
LIVINGSTON     CLOUDY    27  25  92 CALM      30.09F 
MILES CITY     LGT SNOW  27  23  85 E6        30.27S WCI  20 
* BIG TIMBER A CLOUDY    27  25  92 E6        30.11F WCI  20 
* FORSYTH APT  CLOUDY    28  28 100 NE6       30.25S VSB 1 1/4 WCI  21 
* LAUREL APT   CLOUDY    28  21  75 N/A        N/A   
* ALZADA       N/A       26  24  92 NE4        N/A   
* HYSHAM       N/A       28  26  92 E8         N/A   WCI  20 
* REED POINT   N/A       29  28  96 E4         N/A   
* ROSCOE HILL  N/A       26  21  81 E6         N/A   WCI  19 
--------------------------------

REGIONAL REPORTS...DAKOTAS
CITY           SKY/WX    TMP DP  RH WIND       PRES   REMARKS
WILLISTON      CLOUDY     9   1  70 N5        30.38F 
DICKINSON      PTCLDY    10   9  96 SE7       30.30S WCI  -1 
BEACH          CLOUDY    14  12  92 CALM      30.30S 
CROSBY         CLEAR     -9 -13  82 CALM      30.40F 
TIOGA          MOCLDY    -6  -8  91 E8        30.39F WCI -21 
BISMARCK       PTCLDY    -6  -9  87 E5        30.45S WCI -18 
GRAND FORKS    PTCLDY    -9 -15  74 N6        30.53S WCI -23 
FARGO          PTCLDY    -2  -9  72 N8        30.52R WCI -17 
BUFFALO SD     CLOUDY    19  16  88 E6        30.22S WCI  11 
RAPID CITY     CLOUDY    28  25  89 E3        30.27R 
--------------------------------

REGIONAL REPORTS...WYOMING/IDAHO/WASHINGTON
CITY           SKY/WX    TMP DP  RH WIND       PRES   REMARKS
GILLETTE       CLOUDY    27  23  85 SE6       30.20R WCI  20 
SHERIDAN       CLOUDY    28  25  89 CALM      30.17F 
CODY           MOCLDY    21  18  88 W3        30.14R VSB 1 1/4 
YELLOWSTONE LA CLOUDY    34  28  79 VRB7      30.28R WCI  28 
SALMON         CLOUDY    34  30  85 CALM      30.19S VSB 1 1/4 
MULLAN PASS    FOG       36  36 100 W12G22    30.08S VSB 1/2  WCI  28 
SAND POINT     CLOUDY    34  34 100 NE3       30.10F 
SPOKANE        FOG       36  36 100 CALM      30.07F VSB M1/4 
--------------------------------

REGIONAL REPORTS...ALBERTA
CITY           SKY/WX    TMP DP  RH WIND       PRES   REMARKS
CALGARY        LGT SNOW  27  25  92 SE7       30.04F VSB 2 1/2 WCI  19 
LETHBRIDGE     LGT SNOW  30  28  92 SE7       30.07F WCI  23 
MEDICINE HAT   LGT SNOW  28  27  96 E5        30.15F WCI  22 
EDMONTON       CLOUDY    12   9  88 S2        30.11F 
WATERTON GATE  N/A       28  28 100 NE2        N/A   
CARDSTON       N/A       28  28 100 SE8        N/A   WCI  20 
MILK RIVER     N/A       28  27  96 S12        N/A   WCI  18 
--------------------------------

REGIONAL REPORTS...SASKATCHEWAN
CITY           SKY/WX    TMP DP  RH WIND       PRES   REMARKS
SWIFT CURRENT  PTCLDY    14  12  92 SE10      30.20F WCI   1 
MOOSE JAW      LGT SNOW N/A N/A N/A SE9        N/A   
REGINA         FAIR      -4  -8  83 SE10      30.37F WCI -21 
VAL MARIE      N/A       25  21  85 S10        N/A   WCI  15 
ASSINIBOIA     N/A       12   9  88 SE7        N/A   WCI   1 
CORONACH       N/A       14  10  84 SE7        N/A   WCI   4 

--------------------------------